Hickory, NC

1:16 PM EST on February 20, 2018 (GMT -0500)
Hickory Regional

Weather History for KHKY - January, 2014

Change the Weather History Date:

Tuesday, January 21, 2014

  Actual Average Record
Temperature  
Mean Temperature 38 °F -  
Max Temperature 48 °F 47 °F 67 °F (1959)
Min Temperature 26 °F 26 °F -8 °F (1985)
Degree Days  
Heating Degree Days 28    
Moisture  
Dew Point 22 °F    
Average Humidity 54    
Maximum Humidity 75    
Minimum Humidity 37    
Precipitation  
Precipitation 0.00 in - - ()
Sea Level Pressure  
Sea Level Pressure 29.67 in    
Wind  
Wind Speed 4 mph (North)    
Max Wind Speed 16 mph    
Max Gust Speed 31 mph    
Visibility 10 miles    
Events      
Averages and records for this station are not official NWS values.
T = Trace of Precipitation, MM = Missing Value Source: NWS Daily Summary

Daily Weather History Graph

Daily Weather History Graph

Search for Another Location

Airport or City:

Trip Planner

Search our weather history database for the weather conditions in past years. The results will help you decide how hot, cold, wet, or windy it might be!

Date:

Astronomy

Jan. 21, 2014 Rise Set
Actual Time 7:32 AM EST 5:41 PM EST
Civil Twilight 7:05 AM EST 6:09 PM EST
Nautical Twilight 6:34 AM EST 6:40 PM EST
Astronomical Twilight 6:03 AM EST 7:10 PM EST
Moon 11:00 PM EST (1/21) 10:13 AM EST (1/21)
Length of Visible Light 11h 03m
Length of Day
10h 09m
Waning Gibbous, 75% of the Moon is Illuminated
Jan 21
Waning Gibbous
Jan 24
Last Quarter
Jan 30
New
Feb 6
First Quarter
Feb 14
Full

Hourly Weather History & Observations

Time (EST) Temp. Windchill Dew Point Humidity Pressure Visibility Wind Dir Wind Speed Gust Speed Precip Events Conditions
12:53 AM 37.0 °F - 25.0 °F 62% 29.74 in 10.0 mi Calm Calm - N/A   Clear
1:53 AM 39.0 °F - 21.9 °F 50% 29.71 in 10.0 mi Calm Calm - N/A   Clear
2:53 AM 34.0 °F - 23.0 °F 64% 29.70 in 10.0 mi Calm Calm - N/A   Clear
3:53 AM 34.0 °F - 23.0 °F 64% 29.69 in 10.0 mi Calm Calm - N/A   Clear
4:53 AM 34.0 °F - 23.0 °F 64% 29.66 in 10.0 mi Calm Calm - N/A   Clear
5:53 AM 34.0 °F - 24.1 °F 67% 29.65 in 10.0 mi Calm Calm - N/A   Clear
6:53 AM 32.0 °F 27.5 °F 25.0 °F 75% 29.64 in 10.0 mi North 4.6 mph - N/A   Mostly Cloudy
7:53 AM 32.0 °F 28.7 °F 25.0 °F 75% 29.61 in 10.0 mi East 3.5 mph - N/A   Mostly Cloudy
8:53 AM 37.0 °F 34.5 °F 26.1 °F 65% 29.61 in 10.0 mi ESE 3.5 mph - N/A   Clear
9:53 AM 43.0 °F 38.2 °F 25.0 °F 49% 29.61 in 10.0 mi ENE 8.1 mph - N/A   Mostly Cloudy
10:53 AM 45.0 °F 40.6 °F 26.1 °F 48% 29.61 in 10.0 mi NNE 8.1 mph - N/A   Clear
11:53 AM 48.0 °F - 25.0 °F 41% 29.58 in 10.0 mi East 4.6 mph - N/A   Scattered Clouds
12:53 PM 48.9 °F - 25.0 °F 39% 29.54 in 10.0 mi Variable 6.9 mph - N/A   Overcast
1:53 PM 48.9 °F - 25.0 °F 39% 29.53 in 10.0 mi Variable 5.8 mph - N/A   Overcast
2:53 PM 46.0 °F 40.2 °F 25.0 °F 44% 29.55 in 10.0 mi West 12.7 mph 24.2 mph N/A   Overcast
3:53 PM 44.1 °F 37.1 °F 19.0 °F 37% 29.59 in 10.0 mi WNW 15.0 mph 31.1 mph N/A   Overcast
4:53 PM 41.0 °F 32.8 °F 23.0 °F 49% 29.63 in 10.0 mi NW 16.1 mph 31.1 mph N/A   Scattered Clouds
5:53 PM 37.0 °F 29.3 °F 19.9 °F 50% 29.68 in 10.0 mi NNW 11.5 mph 25.3 mph N/A   Clear
6:53 PM 34.0 °F 25.5 °F 18.0 °F 52% 29.73 in 10.0 mi NW 11.5 mph 24.2 mph N/A   Clear
7:53 PM 33.1 °F 24.9 °F 17.1 °F 52% 29.77 in 10.0 mi NW 10.4 mph 24.2 mph N/A   Clear
8:53 PM 30.9 °F 21.2 °F 15.1 °F 52% 29.77 in 10.0 mi NW 12.7 mph - N/A   Clear
9:53 PM 28.9 °F 19.8 °F 12.9 °F 51% 29.81 in 10.0 mi North 10.4 mph - N/A   Clear
10:53 PM 27.0 °F 19.5 °F 12.0 °F 53% 29.81 in 10.0 mi North 6.9 mph - N/A   Clear
11:53 PM 26.1 °F 16.8 °F 12.0 °F 55% 29.83 in 10.0 mi North 9.2 mph - N/A   Clear